Location: Lombard
(41.8800°N, 88.0080°W)
Time: 00:36:16
(UTC-05:00)

Transit 2A - Pass Details

Date: 12 February 2023
Orbit: 591 x 964 km, 66.7° (Epoch: 20 March)

Event Time Altitude Azimuth Distance (km) Brightness Sun altitude
Rises 15:18:10 0° 229° (SW) 3,010 10.8 19.2°
Reaches altitude 10° 15:20:28 10° 236° (WSW) 2,151 10.7 18.8°
Maximum altitude 15:25:08 43° 308° (NW) 1,051 7.1 18.2°
Drops below altitude 10° 15:30:20 10° 19° (NNE) 2,401 8.1 17.4°
Sets 15:33:03 0° 27° (NNE) 3,401 8.8 17.0°
